[[{"header":{"parameterUnit":"m.s-1","parameterCategory":1,"la1":30.2991,"la2":30.254,"lo1":-89.0895,"lo2":-89.0444,"dy":0.0017,"dx":0.0017,"nx":28,"ny":28,"refTime":"2023-10-29T03:00:00:Z","depth":0,"parameterNumber":2,"parameterNumberName":"U-component_of_WINDS"},"data":[0,0,0,0,0,0,0,0,0,0,0,0,0,0,0,0,0,0,0,0,0,0,0,0,0,0,0,0,0,0,0,0,0,0,0,0,0,0,0,0,0,0,0,0,0,0,0,0,0,0,0,0,0,0,0,0,0,0,-3.9643,-3.9643,0,-3.9656,-3.9656,-3.9656,-3.9566,-3.9564,-3.9561,-3.9559,-3.9571,-3.9574,-3.9577,0,0,0,0,0,0,0,0,0,0,0,0,0,-3.9543,-3.9545,-3.9643,-3.9643,-3.9643,-3.9656,-3.9656,-3.9656,-3.9567,-3.9564,-3.9561,-3.9558,-3.957,-3.9574,-3.9577,0,0,0,0,0,0,0,0,0,0,0,0,0,-3.9574,-3.9546,-3.9643,-3.96,-3.9597,-3.9656,-3.9656,-3.9656,-3.9567,-3.9564,-3.956,-3.9556,-3.9569,-3.9573,-3.9577,-3.9678,0,0,-3.959,-3.9591,0,0,0,0,0,0,0,0,-3.9572,-3.9578,-3.9606,-3.9603,-3.9599,-3.9606,-3.9625,-3.9664,-3.9568,-3.9578,-3.9559,-3.9554,-3.9586,-3.9588,-3.9599,-3.9679,-3.9679,-3.959,-3.9592,-3.9594,-3.9595,0,0,0,0,0,0,0,-3.957,-3.9577,-3.9648,-3.9607,-3.9603,-3.9581,-3.9581,-3.9632,-3.9603,-3.9577,-3.9571,-3.9574,-3.9583,-3.9595,-3.9599,-3.9679,-3.959,-3.9593,-3.9596,-3.9598,-3.9844,-3.9848,0,0,0,0,0,0,-3.9574,-3.9575,-3.9648,-3.9648,-3.9576,-3.9586,-3.9586,-3.9607,-3.9602,-3.9598,-3.9577,-3.9569,-3.959,-3.9594,-3.9599,-3.9716,-3.9594,-3.9598,-3.96,-3.984,-3.9845,-3.9849,0,0,0,0,0,0,-3.9572,-3.9581,-3.9647,-3.961,-3.9617,-3.9592,-3.9616,-3.961,-3.9621,-3.9602,-3.9596,-3.9594,-3.9587,-3.9593,-3.9659,-3.9715,-3.96,-3.9603,-3.9835,-3.9841,-3.9847,-3.9952,0,0,0,0,0,0,-3.9569,-3.9581,-3.9618,-3.9612,-3.9619,-3.9707,-3.962,-3.9613,-3.9629,-3.9619,-3.9617,-3.9613,-3.9585,-3.9654,-3.9663,-3.9719,-3.9607,-3.983,-3.9838,-3.9845,-3.9943,-3.9961,-3.9976,0,0,0,0,0,-3.9566,-3.9647,-3.9621,-3.963,-3.9665,-3.9711,-3.9715,-3.9681,-3.9634,-3.9671,-3.9659,-3.9613,-3.9709,-3.9661,-3.9671,-3.9729,-3.9826,-3.9835,-3.9844,-3.9936,-3.9957,-3.9976,0,0,0,0,0,0,-3.9659,-3.9645,-3.9616,-3.9697,-3.9706,-3.9695,-3.9741,-3.9705,-3.9727,-3.9717,-3.9674,-3.9675,-3.9748,-3.9745,-3.9693,-3.9827,-3.9759,-3.9771,-3.9825,-3.9845,-3.9862,-3.9859,-3.961,0,0,0,0,0,-3.969,-3.9727,-3.9713,-3.9786,-3.9792,-3.9767,-3.9785,-3.9759,-3.9766,-3.9769,-3.9761,-3.9771,-3.9803,-3.9824,-3.9853,-3.9944,-3.9942,-3.9989,-4.0005,-4.0019,-4.0028,-4.0077,-4.0097,-3.988,-3.988,-3.9879,0,0,-3.9752,-3.9749,-3.9775,-3.9805,-3.9808,-3.9849,-3.977,-3.9816,-3.9845,-3.9776,-3.9837,-3.9833,-3.9841,-3.992,-3.9955,-3.992,-4.0089,-4.0031,-4.0041,-4.0044,-4.0089,-4.0109,-4.0128,-3.9886,-3.9885,-3.9884,0,0,-3.9885,-3.9887,-3.9948,-3.9954,-3.9962,-3.9945,-3.996,-3.9956,-3.9951,-4.0013,-3.9962,-3.9997,-4.0053,-4.0061,-4.0072,-4.0213,-4.0171,-4.0224,-4.0308,-4.0356,-4.0373,-4.0388,-4.0438,-4.0456,-4.0234,-4.0234,-4.0235,0,-3.996,-4.0019,-3.9984,-4.0033,-4.0048,-3.999,-4.0051,-4.0059,-4.0076,-4.0088,-4.0049,-4.012,-4.012,-4.0201,-4.0236,-4.0248,-4.0263,-4.0222,-4.0374,-4.0388,-4.0402,-4.0448,-4.0467,-4.0241,-4.024,-4.0239,-4.0239,0,-4.0112,-4.0154,-4.0202,-4.022,-4.0241,-4.0297,-4.0271,-4.0297,-4.027,-4.0258,-4.0322,-4.0322,-4.035,-4.0368,-4.0342,-4.0446,-4.0424,-4.0381,-4.0311,-4.0429,-4.0472,-4.049,-4.0249,-4.0247,-4.0245,-4.0244,0,0,-4.0299,-4.03,-4.0319,-4.0327,-4.0333,-4.0364,-4.0419,-4.0447,-4.0469,-4.0484,-4.0528,-4.0579,-4.054,-4.0553,-4.0528,-4.057,-4.0682,-4.0521,-4.0521,-4.055,-4.0796,-4.0827,-4.0848,-4.0656,-4.0659,-4.0662,-4.0795,0,-4.0428,-4.052,-4.0492,-4.0584,-4.0622,-4.057,-4.0617,-4.0626,-4.0617,-4.0649,-4.064,-4.0676,-4.0621,-4.0629,-4.0669,-4.066,-4.073,-4.065,-4.0696,-4.0698,-4.0693,-4.0871,-4.0903,-4.1029,-4.0812,-4.0815,-4.0817,0,-4.059,-4.0612,-4.0708,-4.071,-4.0725,-4.0768,-4.0792,-4.0824,-4.0834,-4.0825,-4.0842,-4.0809,-4.0863,-4.0796,-4.087,-4.0816,-4.0834,-4.0833,-4.0837,-4.0837,-4.0762,-4.0875,-4.1068,-4.1086,-4.0843,-4.0841,-4.0839,0,-4.0715,-4.077,-4.0835,-4.0844,-4.0847,-4.0879,-4.0882,-4.0888,-4.0908,-4.093,-4.0942,-4.0971,-4.0986,-4.1009,-4.0985,-4.0939,-4.1063,-4.0994,-4.1056,-4.1057,-4.1081,-4.108,-4.1278,-4.1098,-4.1097,-4.1097,-4.1097,0,-4.086,-4.0921,-4.0891,-4.0931,-4.0998,-4.0967,-4.1034,-4.1031,-4.1039,-4.1077,-4.1035,-4.1072,-4.1039,-4.1074,-4.1056,-4.112,-4.1128,-4.1122,-4.1116,-4.1124,-4.1125,-4.1133,-4.1123,-4.1102,-4.1101,-4.11,-4.1099,0,-4.101,-4.0993,-4.106,-4.1059,-4.106,-4.111,-4.1109,-4.1146,-4.1136,-4.1186,-4.1196,-4.118,-4.1219,-4.1199,-4.1239,-4.1227,-4.131,-4.1293,-4.1306,-4.1301,-4.1363,-4.1357,-4.1572,-4.1599,-4.1403,-4.1405,-4.1407,0,-4.1102,-4.1148,-4.1153,-4.1176,-4.1183,-4.122,-4.1241,-4.1213,-4.1236,-4.1253,-4.1289,-4.1324,-4.1351,-4.1416,-4.1408,-4.144,-4.1422,-4.1496,-4.1426,-4.1434,-4.1421,-4.1418,-4.1422,-4.1508,-4.1511,-4.1513,-4.1514,0,-4.1268,-4.1258,-4.1288,-4.1318,-4.1343,-4.1364,-4.1382,-4.1404,-4.1377,-4.1405,-4.1445,-4.1466,-4.1509,-4.1545,-4.1572,-4.1576,-4.1541,-4.1537,-4.1552,-4.156,-4.1565,-4.1562,-4.1341,-4.1531,-4.1529,-4.1528,-4.1527,-4.1526,-4.139,-4.1429,-4.1439,-4.1475,-4.1486,-4.1505,-4.154,-4.1535,-4.1568,-4.16,-4.1583,-4.163,-4.1642,-4.1676,-4.1685,-4.1721,-4.1692,-4.1715,-4.172,-4.1726,-4.1734,-4.1562,-4.1727,-4.1726,-4.1726,-4.1725,-4.1725,0,-4.1552,-4.1557,-4.1591,-4.1618,-4.1647,-4.1614,-4.1633,-4.1659,-4.1701,-4.1715,-4.1744,-4.1791,-4.1826,-4.1823,-4.1856,-4.1886,-4.1871,-4.1896,-4.1892,-4.1893,-4.1759,-4.1741,-4.1907,-4.1907,-4.1907,-4.1907,-4.1907,-4.1907,-4.1639,-4.1703,-4.1695,-4.1764,-4.1769,-4.1815,-4.1828,-4.1846,-4.1857,-4.1912,-4.1941,-4.194,-4.1947,-4.1981,-4.2013,-4.2011,-4.2025,-4.2055,-4.2047,-4.1921,-4.1903,-4.1885,-4.1868,-4.2059,-4.2059,-4.2178,-4.2179,-4.218]},{"header":{"parameterUnit":"m.s-1","parameterCategory":1,"la1":30.2991,"la2":30.254,"lo1":-89.0895,"lo2":-89.0444,"dy":0.0017,"dx":0.0017,"nx":28,"ny":28,"refTime":"2023-10-29T03:00:00:Z","depth":0,"parameterNumber":3,"parameterNumberName":"V-component_of_WINDS"},"data":[0,0,0,0,0,0,0,0,0,0,0,0,0,0,0,0,0,0,0,0,0,0,0,0,0,0,0,0,0,0,0,0,0,0,0,0,0,0,0,0,0,0,0,0,0,0,0,0,0,0,0,0,0,0,0,0,0,0,2.4606,2.4607,0,2.4676,2.4676,2.4677,2.4768,2.4769,2.4771,2.4772,2.4836,2.4837,2.4837,0,0,0,0,0,0,0,0,0,0,0,0,0,2.4547,2.4548,2.4606,2.4607,2.4608,2.4675,2.4676,2.4677,2.4767,2.4769,2.4771,2.4773,2.4836,2.4837,2.4837,0,0,0,0,0,0,0,0,0,0,0,0,0,2.459,2.4548,2.4606,2.4661,2.4667,2.4675,2.4676,2.4678,2.4767,2.4769,2.4771,2.4773,2.4836,2.4836,2.4837,2.4795,0,0,2.4838,2.4839,0,0,0,0,0,0,0,0,2.4587,2.4592,2.4652,2.4657,2.4664,2.4715,2.4679,2.4717,2.4766,2.4729,2.4772,2.4775,2.4794,2.4798,2.4806,2.4798,2.4801,2.4838,2.4839,2.4839,2.4839,0,0,0,0,0,0,0,2.4584,2.459,2.4633,2.4653,2.466,2.4681,2.469,2.4687,2.4747,2.4732,2.4739,2.4746,2.4797,2.4805,2.4808,2.4802,2.4838,2.4839,2.4839,2.4839,2.4766,2.4764,0,0,0,0,0,0,2.4574,2.4587,2.4631,2.4635,2.4631,2.468,2.469,2.4696,2.4748,2.4758,2.4744,2.475,2.4803,2.4807,2.481,2.4767,2.4839,2.4839,2.484,2.4768,2.4766,2.4763,0,0,0,0,0,0,2.4572,2.4577,2.4628,2.4613,2.4621,2.4679,2.4685,2.4696,2.4705,2.4757,2.4768,2.4741,2.4805,2.481,2.4799,2.4771,2.484,2.484,2.4771,2.4768,2.4764,2.4678,0,0,0,0,0,0,2.457,2.4576,2.4561,2.4612,2.4622,2.4617,2.4684,2.4696,2.4706,2.4714,2.4757,2.4766,2.4807,2.4798,2.48,2.4772,2.484,2.4774,2.4769,2.4766,2.4684,2.4672,2.4662,0,0,0,0,0,2.4568,2.4532,2.456,2.4565,2.4605,2.4615,2.4621,2.467,2.4703,2.4689,2.4723,2.4765,2.4773,2.4796,2.4799,2.4771,2.4776,2.4771,2.4766,2.4689,2.4675,2.4663,0,0,0,0,0,0,2.4473,2.454,2.4571,2.4551,2.4577,2.4631,2.4614,2.4653,2.4668,2.4675,2.4734,2.4743,2.4726,2.4747,2.4772,2.4735,2.4781,2.4776,2.4721,2.4708,2.4698,2.4693,2.4841,0,0,0,0,0,2.4451,2.4455,2.4512,2.4489,2.4501,2.4555,2.4561,2.4598,2.4626,2.4636,2.467,2.4694,2.4703,2.4707,2.4717,2.4688,2.4699,2.467,2.4659,2.465,2.4645,2.4633,2.4622,2.4747,2.4747,2.4747,0,0,2.4403,2.444,2.4438,2.4471,2.4496,2.4498,2.4563,2.4562,2.4565,2.4636,2.4629,2.4654,2.4685,2.4666,2.4659,2.4683,2.4613,2.4644,2.4636,2.4636,2.4627,2.4615,2.4605,2.4743,2.4744,2.4745,0,0,2.4318,2.4346,2.4331,2.4355,2.4393,2.4429,2.4426,2.4474,2.4494,2.4489,2.4543,2.4546,2.4559,2.458,2.4592,2.4518,2.4557,2.4519,2.4463,2.4451,2.4441,2.4433,2.4408,2.4398,2.4514,2.4514,2.4514,0,2.4253,2.4261,2.4317,2.4315,2.4328,2.4396,2.4381,2.4401,2.4438,2.4445,2.4473,2.4493,2.4518,2.4506,2.4488,2.4495,2.4493,2.4514,2.4438,2.443,2.4423,2.44,2.439,2.4509,2.451,2.451,2.4511,0,2.418,2.4185,2.4168,2.4207,2.4218,2.4209,2.4264,2.4268,2.4304,2.4337,2.4332,2.4365,2.4385,2.4385,2.4418,2.4378,2.4392,2.4428,2.4475,2.4406,2.4385,2.4376,2.4502,2.4504,2.4505,2.4507,0,0,2.4036,2.4109,2.4102,2.4121,2.4169,2.4173,2.4167,2.419,2.4193,2.4216,2.4214,2.4224,2.4259,2.4273,2.4309,2.4299,2.424,2.4336,2.4338,2.4318,2.4199,2.4173,2.4162,2.4267,2.4266,2.4264,2.4197,0,2.3961,2.3958,2.401,2.3992,2.3997,2.4063,2.4058,2.4086,2.4118,2.4126,2.416,2.4168,2.4212,2.4222,2.4214,2.4249,2.4217,2.4254,2.4264,2.4264,2.4255,2.4151,2.4122,2.4057,2.4189,2.4188,2.4187,0,2.3872,2.3895,2.3878,2.393,2.3934,2.3929,2.3955,2.3963,2.3996,2.402,2.4037,2.408,2.4078,2.4123,2.4121,2.4145,2.4152,2.417,2.4169,2.4172,2.4221,2.4152,2.4037,2.4028,2.4174,2.4175,2.4176,0,2.377,2.3797,2.3792,2.3806,2.3865,2.386,2.3884,2.392,2.3931,2.3953,2.3961,2.3981,2.3992,2.4006,2.4053,2.4082,2.4046,2.4095,2.4065,2.4064,2.4055,2.4055,2.3941,2.4058,2.4058,2.4058,2.4058,0,2.3681,2.3669,2.3747,2.3744,2.3732,2.3792,2.3778,2.3808,2.384,2.3843,2.39,2.3901,2.3964,2.3971,2.4008,2.4002,2.4005,2.4024,2.4034,2.402,2.4018,2.4026,2.4032,2.4055,2.4056,2.4057,2.4057,0,2.3566,2.3618,2.3616,2.3674,2.3688,2.3677,2.3726,2.3725,2.3761,2.3764,2.3768,2.3824,2.3837,2.3886,2.3909,2.3934,2.3916,2.3934,2.3905,2.3912,2.3881,2.3883,2.3768,2.3757,2.3879,2.3878,2.3877,0,2.3506,2.3499,2.3557,2.3564,2.3587,2.3597,2.361,2.3669,2.3679,2.3719,2.3713,2.3731,2.3748,2.3765,2.3807,2.3826,2.3846,2.3805,2.3849,2.3836,2.3847,2.3848,2.3848,2.3795,2.3793,2.3792,2.3791,0,2.3395,2.3422,2.3439,2.3466,2.348,2.3503,2.3529,2.3532,2.3597,2.3606,2.3622,2.3635,2.3662,2.3679,2.3705,2.3728,2.377,2.3777,2.3771,2.3757,2.3741,2.3751,2.388,2.3779,2.378,2.3781,2.3782,2.3782,2.3306,2.3304,2.3346,2.3364,2.339,2.3414,2.3417,2.3455,2.347,2.3498,2.3531,2.3543,2.3578,2.3618,2.3639,2.3648,2.3671,2.3662,2.3661,2.3658,2.3652,2.3739,2.3653,2.3653,2.3653,2.3654,2.3654,0,2.32,2.3231,2.3247,2.3284,2.3298,2.3339,2.3371,2.338,2.339,2.3421,2.3438,2.3457,2.3474,2.3519,2.354,2.3539,2.3559,2.3543,2.3544,2.3549,2.3629,2.3632,2.3527,2.3527,2.3527,2.3527,2.3527,2.3527,2.3146,2.3145,2.3177,2.319,2.3221,2.3235,2.325,2.3273,2.3298,2.3317,2.3333,2.3363,2.34,2.3425,2.3443,2.3456,2.3461,2.3439,2.3458,2.3531,2.3543,2.3555,2.3558,2.3439,2.3439,2.3378,2.3377,2.3377]}]]